Flag for Spain Weather past 2 weeks in Barcelona, Barcelona, Spain

Now
73 °F

Passing clouds.


Feels Like: 75 °F
Forecast: 62 / 78 °F
Wind: 6 mph from Southwest

Location: Barcelona Airport

Current Time: Oct 20, 2014 at 12:33:12 PM

Latest Report: Oct 20, 2014 at 12:00 PM


Visibility: N/A

Pressure: 30.18 "Hg

Humidity: 74%

Dew point: 64 °F

Location of BarcelonaLocation

Historic Weather in Barcelona — Graph

°F

Barcelona temperature yesterday

Maximum temperature yesterday: 75 °F (at 3:00 PM)
Minimum temperature yesterday: 63 °F (at 4:30 AM)
Average temperature yesterday: 68 °F

Past Weeks' High & Low Weather Summary

 TemperatureHumidityPressure
High79 °F (Oct 17, 1:00 PM)100% (Oct 10, 11:00 PM)30.24 "Hg (Oct 10, 11:00 PM)
Low59 °F (Oct 15, 3:00 AM)53% (Oct 13, 2:00 PM)29.71 "Hg (Oct 14, 4:00 PM)
Average69 °F80%29.93 "Hg
* Reported Oct 5 11:00 AM — Oct 20 11:30 AM, Barcelona, Weather by CustomWeather, © 2014

Note: Actual official high and low records may vary slightly from our data, if they occured in-between our weather recording intervals... More about our weather records

Advertising

Barcelona weather history for previous 24 hours

 ConditionsComfort  
Time TempWeatherWind HumidityBarometerVisibility
11:30 AM
Oct 20
72 °FPassing clouds.3 mph78%30.21 "HgN/A
11:00 AM70 °FPassing clouds.3 mph73%30.21 "HgN/A
10:30 AM68 °FPassing clouds.6 mph78%30.21 "Hg6 mi
10:00 AM66 °FPassing clouds.7 mph78%30.21 "Hg6 mi
9:30 AM64 °FPassing clouds.7 mph83%30.18 "Hg6 mi
9:00 AM63 °FPassing clouds.7 mph88%30.18 "Hg6 mi
8:30 AM61 °FPassing clouds.7 mph88%30.18 "HgN/A
8:00 AM63 °FPassing clouds.7 mph88%30.18 "HgN/A
7:30 AM63 °FPassing clouds.8 mph88%30.18 "HgN/A
5:00 AM64 °FPassing clouds.8 mph88%30.18 "Hg6 mi
4:30 AM64 °FPassing clouds.7 mph88%30.18 "Hg5 mi
4:00 AM64 °FPassing clouds.9 mph94%30.21 "Hg4 mi
3:30 AM66 °FPassing clouds.8 mph88%30.21 "Hg4 mi
3:00 AM66 °FPassing clouds.7 mph88%30.21 "Hg4 mi
2:30 AM66 °FClear.6 mph94%30.21 "Hg4 mi
2:00 AM66 °FPassing clouds.6 mph94%30.21 "Hg4 mi
1:30 AM66 °FPassing clouds.5 mph94%30.24 "Hg4 mi
1:00 AM66 °FPassing clouds.6 mph94%30.24 "Hg4 mi
12:30 AM68 °FPassing clouds.7 mph88%30.24 "Hg4 mi
12:00 AM68 °FPassing clouds.3 mph88%30.24 "Hg4 mi
11:30 PM
Oct 19
68 °FPassing clouds.6 mph88%30.24 "Hg5 mi
11:00 PM68 °FPassing clouds.3 mph94%30.24 "Hg5 mi
10:30 PM70 °FPassing clouds.3 mph88%30.24 "Hg5 mi
10:00 PM70 °FPassing clouds.3 mph94%30.24 "Hg6 mi
9:30 PM70 °FPassing clouds.1 mph94%30.24 "Hg6 mi
9:00 PM72 °FPassing clouds.2 mph88%30.24 "Hg6 mi
8:30 PM72 °FPassing clouds.6 mph88%30.24 "Hg6 mi
8:00 PM72 °FPartly sunny.6 mph88%30.24 "Hg6 mi
7:30 PM70 °FScattered clouds.6 mph94%30.21 "Hg6 mi
7:00 PM72 °FScattered clouds.7 mph88%30.21 "HgN/A
6:30 PM72 °FScattered clouds.9 mph88%30.21 "HgN/A
6:00 PM72 °FPassing clouds.9 mph88%30.21 "HgN/A
5:30 PM73 °FPassing clouds.12 mph83%30.21 "HgN/A
5:00 PM73 °FPassing clouds.10 mph83%30.21 "HgN/A
4:30 PM75 °FPassing clouds.12 mph74%30.21 "HgN/A
4:00 PM75 °FPassing clouds.9 mph74%30.21 "HgN/A
3:30 PM75 °FPassing clouds.8 mph69%30.21 "HgN/A
3:00 PM75 °FPassing clouds.9 mph74%30.21 "HgN/A
2:30 PM73 °FPassing clouds.9 mph78%30.21 "HgN/A
2:00 PM73 °FPassing clouds.9 mph78%30.24 "HgN/A
1:30 PM72 °FPassing clouds.9 mph83%30.24 "HgN/A
1:00 PM72 °FPassing clouds.12 mph83%30.24 "HgN/A
12:30 PM73 °FPassing clouds.10 mph74%30.24 "HgN/A
12:00 PM72 °FPassing clouds.10 mph78%30.24 "HgN/A
Weather by CustomWeather, © 2014

See weather overviewHow to use our weather pages